Regional Weather Roundup
Issued by NWS

Home | Current Version | Previous Version | Graphics & Text | Print | Product List | Glossary On
Versions: 1 2 3 4 5 6 7 8 9 10 11 12 13 14 15 16 17 18 19 20 21 22 23 24 25 26 27 28 29 30 31 32 33 34 35 36 37 38 39 40 41 42 43 44 45 46 47 48 49 50
000
ASUS43 KFSD 191810
RWRSD

WEATHER ROUNDUP FOR SOUTH DAKOTA
NATIONAL WEATHER SERVICE SIOUX FALLS SD
1200 PM CST SUN FEB 19 2017

NOTE: "FAIR" INDICATES FEW OR NO CLOUDS BELOW 12,000 FEET WITH NO
SIGNIFICANT WEATHER AND/OR OBSTRUCTIONS TO VISIBILITY.


SDZ001>005-009-010-012>017-191900-
NORTHWEST AND NORTH CENTRAL SOUTH DAKOTA

CITY           SKY/WX    TMP DP  RH WIND       PRES   REMARKS
BUFFALO          N/A     58  33  39 S13       29.40F
FAITH            N/A     51  37  58 S16       29.49F
MOBRIDGE       SUNNY     45  35  68 S9        29.52F
$$

SDZ012>016-024>037-041>051-057-063-072>074-191900-
SOUTHWEST AND SOUTH CENTRAL SOUTH DAKOTA

CITY           SKY/WX    TMP DP  RH WIND       PRES   REMARKS
RAPID CTY ARPT SUNNY     67  32  27 S18G25    29.52F
PIERRE         SUNNY     60  38  43 S17       29.53F
CUSTER         SUNNY     54  28  36 SW17G25   29.61R
ELLSWORTH AFB  SUNNY     66  33  29 S17       29.51F
PHILIP         SUNNY     65  35  33 S7        29.51F
PINE RIDGE     MOSUNNY   54  36  50 S9        29.60S
SPEARFISH      FAIR      63  30  29 SW23G38   29.50R
WINNER         FAIR      62  40  44 SW17G26   29.60F
$$

SDZ004>011-016>023-039-040-191900-
NORTHEAST SOUTH DAKOTA

CITY           SKY/WX    TMP DP  RH WIND       PRES   REMARKS
ABERDEEN       SUNNY     52  42  69 SE18      29.63F
WATERTOWN      SUNNY     50  42  74 SE18G28   29.71F
BROOKINGS      SUNNY     53  43  68 S20G26    29.74F
SISSETON         N/A     45  41  86 S15       29.70F
$$

SDZ017-020-022-023-036>040-048>070-191900-
SOUTHEAST SOUTH DAKOTA

CITY           SKY/WX    TMP DP  RH WIND       PRES   REMARKS
SIOUX FALLS    PTSUNNY   57  49  74 S18G24    29.78F
HURON          SUNNY     57  44  62 S16G24    29.64F
CHAMBERLAIN    MOSUNNY   60  44  54 S10       29.62F
MITCHELL       SUNNY     57  46  66 S22G30    29.68F
YANKTON        PTSUNNY   57  48  72 SE9G22    29.74F
$$

ABBREVIATIONS USED IN REMARKS
   TC - TEMPERATURE IN CELSIUS
  WCI - WIND CHILL INDEX
   HX - HEAT INDEX
  VSB - VISIBILITY





USA.gov is the U.S. government's official web portal to all federal, state and local government web resources and services.